GW3957 Weather Reports


Display with metric or nautical units.
time (UTC)temp
F
wind
direction
speed
MPH
gust
MPH
rain 1hr
in
rain 24hr
in
rain mn
in
humidity
%
barometer
mb
20260507045704 40 227 0.0 0.0 0.00 0.65 0.65 99 1008.3
20260507045200 40 223 0.0 1.0 0.00 0.65 0.65 99 1008.7
20260507044658 40 197 0.0 0.0 0.00 0.65 0.65 99 1008.9
20260507044154 40 237 0.0 1.0 0.00 0.65 0.65 99 1008.6
20260507043650 40 227 0.0 0.0 0.00 0.65 0.65 99 1008.4
20260507043148 40 214 0.0 0.0 0.00 0.65 0.65 99 1008.4
20260507042644 40 211 0.0 0.0 0.00 0.65 0.65 99 1008.6
20260507042139 40 228 0.0 0.0 0.00 0.65 0.65 99 1008.8
20260507041636 40 222 0.0 0.0 0.00 0.65 0.65 99 1008.4
20260507041132 40 221 0.0 0.0 0.00 0.65 0.65 99 1008.4
20260507040630 40 233 0.0 0.0 0.00 0.65 0.65 99 1008.6
20260507040121 40 233 0.0 0.0 0.00 0.65 0.65 99 1008.6
20260507035617 40 218 0.0 0.0 0.00 0.65 0.65 99 1008.4
20260507035113 41 213 0.0 0.0 0.00 0.65 0.65 99 1008.4
20260507034610 41 246 0.0 0.0 0.00 0.65 0.65 99 1008.4
20260507034108 41 235 0.0 0.0 0.00 0.65 0.65 99 1008.3
20260507033606 41 217 0.0 0.0 0.00 0.65 0.65 99 1008.4
20260507033103 41 227 0.0 0.0 0.00 0.65 0.65 99 1008.8
20260507032600 41 227 0.0 2.0 0.00 0.65 0.65 99 1008.4
20260507032055 41 227 0.0 0.0 0.00 0.65 0.65 99 1008.7
20260507031552 41 240 0.0 0.0 0.00 0.65 0.65 99 1008.4
20260507031049 41 218 0.0 0.0 0.00 0.65 0.65 99 1008.8
20260507030545 41 228 1.0 2.0 0.00 0.65 0.65 99 1009.0
20260507030043 41 212 0.0 1.0 0.00 0.65 0.65 99 1008.6
20260507025540 41 237 0.0 0.0 0.00 0.65 0.65 99 1008.6
20260507025032 41 241 0.0 0.0 0.00 0.65 0.65 99 1008.7
20260507024530 41 186 0.0 2.0 0.00 0.65 0.65 99 1008.6
20260507024026 41 209 0.0 2.0 0.00 0.65 0.65 99 1008.7
20260507023521 41 225 0.0 0.0 0.00 0.65 0.65 99 1009.1
20260507023020 41 220 0.0 0.0 0.00 0.65 0.65 99 1009.0
20260507022516 41 237 0.0 0.0 0.00 0.65 0.65 99 1009.0
20260507022011 42 251 0.0 1.0 0.00 0.65 0.65 99 1008.7
20260507021508 42 237 0.0 1.0 0.00 0.65 0.65 99 1009.2
20260507021005 42 211 0.0 4.0 0.00 0.65 0.65 99 1009.4
20260507020503 42 205 0.0 0.0 0.00 0.65 0.65 99 1009.1
20260507015959 42 254 0.0 0.0 0.00 0.65 0.65 99 1009.1
20260507015458 42 207 0.0 2.0 0.00 0.65 0.65 99 1009.0
20260507014954 42 283 1.0 2.0 0.00 0.65 0.65 99 1009.2
20260507014450 42 209 0.0 0.0 0.00 0.65 0.65 99 1009.2
20260507013946 42 228 0.0 0.0 0.00 0.65 0.65 99 1009.3
20260507013443 42 228 0.0 0.0 0.00 0.65 0.65 99 1009.2
20260507012940 42 213 0.0 0.0 0.00 0.65 0.65 99 1009.2
20260507012437 42 207 0.0 2.0 0.00 0.65 0.65 99 1009.1
20260507011933 42 191 0.0 2.0 0.00 0.65 0.65 99 1009.1
20260507011431 42 233 0.0 2.0 0.00 0.65 0.65 99 1009.1
20260507010925 42 227 1.0 2.0 0.00 0.65 0.65 99 1009.0
20260507010421 42 236 0.0 1.0 0.00 0.65 0.65 99 1009.0
20260507005918 42 243 0.0 2.0 0.00 0.65 0.65 99 1008.8
20260507005415 42 221 0.0 0.0 0.00 0.65 0.65 99 1008.8
20260507004911 42 283 1.0 3.0 0.00 0.65 0.65 99 1009.0
20260507004408 42 242 0.0 1.0 0.00 0.65 0.65 99 1008.8
20260507003906 42 214 0.0 1.0 0.00 0.65 0.65 99 1008.6
20260507003401 42 127 2.0 2.0 0.00 0.65 0.65 99 1008.3
20260507002856 42 261 1.0 3.0 0.00 0.65 0.65 99 1008.4
20260507002352 42 250 0.0 2.0 0.00 0.65 0.65 99 1008.3
20260507001850 43 239 2.0 6.0 0.00 0.65 0.65 99 1008.3
20260507001346 43 312 2.0 3.0 0.00 0.65 0.65 99 1008.3
20260507000843 43 206 0.0 1.0 0.00 0.65 0.65 99 1008.4
20260507000338 43 242 1.0 3.0 0.00 0.65 0.65 99 1008.3
20260506235835 43 171 0.0 1.0 0.00 0.65 0.65 99 1008.1
20260506235332 43 250 0.0 4.0 0.00 0.65 0.65 99 1008.0
20260506234828 43 229 0.0 2.0 0.00 0.65 0.65 99 1008.1
20260506234326 43 233 0.0 0.0 0.00 0.65 0.65 99 1008.1
20260506233823 43 256 0.0 4.0 0.00 0.65 0.65 99 1008.2
20260506233319 43 232 0.0 3.0 0.00 0.65 0.65 99 1008.1
20260506232816 43 236 1.0 2.0 0.00 0.65 0.65 99 1008.0
20260506232311 44 295 3.0 3.0 0.00 0.65 0.65 99 1008.0
20260506231809 44 216 0.0 3.0 0.00 0.65 0.65 99 1008.1
20260506231307 44 188 2.0 4.0 0.00 0.65 0.65 99 1007.9
20260506230804 44 234 0.0 6.0 0.00 0.65 0.65 99 1008.0
20260506230300 44 258 1.0 2.0 0.00 0.65 0.65 99 1007.9
20260506225756 44 225 0.0 0.0 0.00 0.65 0.65 99 1007.5
20260506225254 44 196 0.0 3.0 0.00 0.65 0.65 99 1007.4
20260506224745 44 252 0.0 2.0 0.00 0.65 0.65 99 1007.3
20260506224242 44 237 2.0 2.0 0.00 0.65 0.65 99 1007.3
20260506223732 44 1 1.0 3.0 0.00 0.65 0.65 99 1007.5
20260506223228 44 237 1.0 3.0 0.00 0.65 0.65 99 1007.3
20260506222726 44 266 0.0 4.0 0.00 0.65 0.65 99 1007.3
20260506222221 44 233 0.0 2.0 0.00 0.65 0.65 99 1007.2
20260506221719 44 184 0.0 6.0 0.05 0.65 0.65 99 1007.2
20260506221217 45 261 1.0 2.0 0.05 0.65 0.65 99 1007.3
20260506220714 45 278 4.0 6.0 0.00 0.64 0.64 99 1007.3
20260506220208 45 225 0.0 6.0 0.07 0.64 0.64 99 1007.0
20260506215705 45 182 1.0 6.0 0.05 0.63 0.63 99 1007.0
20260506215201 45 232 0.0 3.0 0.05 0.63 0.63 99 1007.0
20260506214658 45 175 2.0 4.0 0.07 0.62 0.62 99 1007.2
20260506214155 46 242 1.0 3.0 0.00 0.61 0.61 99 1006.8
20260506213654 46 214 1.0 3.0 0.00 0.61 0.61 99 1006.8
20260506213150 46 251 2.0 3.0 0.05 0.61 0.61 99 1006.3
20260506212647 46 219 1.0 7.0 0.05 0.61 0.61 99 1006.4
20260506212142 47 247 1.0 3.0 0.00 0.60 0.60 99 1006.3
20260506211638 47 185 1.0 3.0 0.00 0.60 0.60 99 1006.1
20260506211135 47 210 0.0 4.0 0.00 0.60 0.60 99 1006.2
20260506210632 48 274 2.0 6.0 0.00 0.60 0.60 99 1006.0
20260506210128 48 282 1.0 4.0 0.07 0.60 0.60 99 1005.9
20260506205626 49 272 1.0 3.0 0.07 0.60 0.60 99 1005.8
20260506205120 50 253 2.0 2.0 0.00 0.59 0.59 99 1005.8
20260506204619 50 201 0.0 1.0 0.00 0.59 0.59 99 1005.6
20260506204115 50 231 0.0 4.0 0.00 0.59 0.59 99 1005.5
20260506203614 50 182 0.0 1.0 0.00 0.59 0.59 99 1005.5
20260506203110 50 269 1.0 2.0 0.00 0.59 0.59 99 1005.5
20260506202608 51 290 1.0 2.0 0.07 0.59 0.59 99 1005.2
20260506202104 53 336 4.0 4.0 0.00 0.58 0.58 99 1005.1
20260506201601 56 217 0.0 2.0 0.00 0.58 0.58 99 1005.1
20260506201058 56 234 0.0 0.0 0.00 0.58 0.58 99 1004.7
20260506200554 56 210 0.0 0.0 0.00 0.58 0.58 99 1004.6
20260506200051 56 172 1.0 3.0 0.00 0.58 0.58 99 1004.7
20260506195547 56 160 1.0 2.0 0.00 0.58 0.58 99 1004.9
20260506195038 56 185 0.0 1.0 0.00 0.58 0.58 99 1004.9
20260506194536 56 29 2.0 3.0 0.00 0.58 0.58 99 1004.9
20260506194032 56 199 0.0 2.0 0.00 0.58 0.58 99 1005.0
20260506193530 56 47 0.0 2.0 0.00 0.58 0.58 99 1004.7
20260506193027 56 68 1.0 1.0 0.00 0.58 0.58 99 1004.9
20260506192523 56 221 1.0 7.0 0.00 0.58 0.58 99 1004.9
20260506192019 56 242 0.0 2.0 0.00 0.58 0.58 99 1005.1
20260506191516 56 203 0.0 3.0 0.00 0.58 0.58 99 1004.9
20260506191012 56 131 1.0 1.0 0.00 0.58 0.58 99 1004.9
20260506190510 56 169 0.0 2.0 0.00 0.58 0.58 99 1005.1
20260506190007 56 214 0.0 4.0 0.00 0.58 0.58 99 1005.0
20260506185504 56 74 1.0 6.0 0.00 0.58 0.58 99 1005.1
20260506185000 56 74 2.0 3.0 0.00 0.58 0.58 99 1005.2
20260506184457 56 166 1.0 4.0 0.00 0.58 0.58 99 1005.2
20260506183954 56 149 1.0 2.0 0.00 0.58 0.58 99 1005.1
20260506183450 56 264 1.0 3.0 0.00 0.58 0.58 99 1005.3
20260506182947 56 176 1.0 3.0 0.00 0.58 0.58 99 1005.2
20260506182444 56 104 2.0 7.0 0.00 0.58 0.58 99 1005.3
20260506181941 56 35 2.0 8.0 0.00 0.58 0.58 99 1005.2
20260506181439 56 262 0.0 2.0 0.00 0.58 0.58 99 1005.3
20260506180936 56 173 0.0 3.0 0.00 0.58 0.58 99 1005.3
20260506180432 57 96 1.0 1.0 0.00 0.58 0.58 99 1005.3
20260506175929 57 7 2.0 2.0 0.00 0.58 0.58 99 1005.4
20260506175426 57 165 1.0 2.0 0.00 0.58 0.58 99 1005.3
20260506174923 57 0 1.0 2.0 0.05 0.58 0.58 99 1005.2
20260506174421 57 156 1.0 3.0 0.00 0.57 0.57 99 1005.3
20260506173917 57 273 1.0 2.0 0.07 0.57 0.57 99 1005.2
20260506173414 56 154 0.0 2.0 0.07 0.57 0.57 99 1005.4
20260506172911 56 178 1.0 3.0 0.05 0.56 0.56 99 1005.3
20260506172408 56 176 1.0 2.0 0.05 0.56 0.56 99 1005.5
20260506171905 56 249 0.0 0.0 0.07 0.55 0.55 99 1005.4
20260506171402 55 193 0.0 3.0 0.07 0.55 0.55 99 1005.6
20260506170900 55 231 1.0 2.0 0.12 0.55 0.55 99 1005.4
20260506170355 55 186 2.0 4.0 0.12 0.54 0.54 99 1005.7
20260506165849 55 169 1.0 1.0 0.07 0.53 0.53 99 1005.6
20260506165347 55 114 1.0 2.0 0.00 0.52 0.52 99 1005.7
20260506164843 55 275 2.0 3.0 0.00 0.52 0.52 99 1005.7
20260506164340 55 149 0.0 0.0 0.00 0.52 0.52 99 1005.6
20260506163838 55 138 2.0 2.0 0.05 0.52 0.52 99 1005.5
20260506163332 55 115 2.0 3.0 0.00 0.51 0.51 99 1005.6
20260506162827 55 106 1.0 2.0 0.07 0.51 0.51 99 1005.8
20260506162325 55 112 0.0 1.0 0.07 0.51 0.51 99 1005.6
20260506161822 55 147 3.0 3.0 0.05 0.50 0.50 99 1005.6
20260506161320 55 210 2.0 3.0 0.17 0.50 0.50 99 1005.8
20260506160817 55 333 0.0 0.0 0.19 0.49 0.49 99 1006.0
20260506160313 55 106 2.0 2.0 0.14 0.47 0.47 99 1006.0
20260506155812 55 214 0.0 2.0 0.12 0.46 0.46 99 1006.0
20260506155308 55 288 1.0 2.0 0.12 0.45 0.45 99 1005.8
20260506153416 55 259 0.0 1.0 0.19 0.38 0.38 99 1006.0
20260506152913 55 228 2.0 2.0 0.12 0.37 0.37 99 1005.9
20260506152410 55 108 1.0 1.0 0.05 0.35 0.35 99 1005.9
20260506151909 55 226 0.0 2.0 0.12 0.35 0.35 99 1005.9
20260506151405 55 207 0.0 1.0 0.07 0.34 0.34 99 1005.8
20260506150903 55 244 1.0 2.0 0.07 0.33 0.33 99 1005.7
20260506150359 55 200 0.0 1.0 0.07 0.33 0.33 99 1005.9
20260506145856 55 280 1.0 2.0 0.05 0.32 0.32 99 1005.7
20260506145352 55 230 0.0 0.0 0.12 0.32 0.32 99 1005.7
20260506144850 55 85 1.0 3.0 0.07 0.31 0.31 99 1005.7
20260506144346 55 224 0.0 2.0 0.05 0.30 0.30 99 1005.6
20260506143844 55 70 3.0 4.0 0.05 0.30 0.30 99 1005.7
20260506143341 55 214 0.0 3.0 0.07 0.29 0.29 99 1005.6
20260506142839 55 228 0.0 3.0 0.12 0.29 0.29 99 1005.7
20260506142337 55 62 0.0 1.0 0.12 0.28 0.28 99 1005.8
20260506141835 55 228 0.0 3.0 0.07 0.27 0.27 99 1006.1
20260506141333 54 70 0.0 1.0 0.12 0.26 0.26 99 1006.2
20260506140831 54 27 2.0 3.0 0.17 0.26 0.26 99 1006.2
20260506140327 54 199 2.0 2.0 0.12 0.24 0.24 99 1006.3
20260506135824 54 186 2.0 6.0 0.12 0.23 0.23 99 1006.6
20260506135321 54 199 0.0 1.0 0.12 0.22 0.22 99 1006.8
20260506134817 54 80 0.0 2.0 0.07 0.21 0.21 99 1006.6
20260506134313 54 230 0.0 0.0 0.12 0.20 0.20 99 1006.8
20260506133811 54 226 0.0 0.0 0.12 0.19 0.19 99 1006.9
20260506133308 53 136 0.0 0.0 0.12 0.18 0.18 99 1007.0
20260506132804 54 220 0.0 0.0 0.12 0.17 0.17 99 1007.1
20260506132302 54 220 0.0 0.0 0.12 0.16 0.16 99 1007.2
20260506131800 54 222 0.0 0.0 0.12 0.14 0.14 99 1007.2
20260506131255 53 223 0.0 0.0 0.19 0.14 0.14 99 1007.3
20260506130752 53 220 0.0 0.0 0.12 0.12 0.12 99 1007.1
20260506130249 53 219 0.0 0.0 0.12 0.11 0.11 99 1007.2
20260506125747 53 219 0.0 0.0 0.07 0.10 0.10 99 1007.2
20260506125244 53 219 0.0 0.0 0.07 0.09 0.09 99 1006.6
20260506124743 53 219 0.0 0.0 0.07 0.09 0.09 99 1006.6
20260506124240 53 218 0.0 0.0 0.05 0.08 0.08 99 1006.9
20260506123738 53 218 0.0 0.0 0.05 0.08 0.08 99 1007.0
20260506123237 53 218 0.0 0.0 0.00 0.07 0.07 99 1006.6
20260506122732 53 218 0.0 0.0 0.07 0.07 0.07 99 1006.9
20260506122229 53 218 0.0 0.0 0.07 0.07 0.07 99 1006.6
20260506121728 53 218 0.0 0.0 0.00 0.06 0.06 99 1006.9
20260506121225 53 218 0.0 0.0 0.00 0.06 0.06 99 1006.9
20260506120722 53 218 0.0 0.0 0.00 0.06 0.06 99 1007.1
20260506120219 53 218 0.0 0.0 0.05 0.06 0.06 99 1007.2
20260506115717 53 218 0.0 0.0 0.00 0.05 0.05 99 1007.2
20260506115215 52 218 0.0 0.0 0.07 0.05 0.05 99 1007.0
20260506114712 52 218 0.0 0.0 0.07 0.05 0.05 99 1007.2
20260506114210 53 218 0.0 0.0 0.05 0.04 0.04 99 1007.0
20260506113708 53 218 0.0 0.0 0.12 0.04 0.04 99 1007.3
20260506113205 53 216 0.0 0.0 0.12 0.03 0.03 99 1007.1
20260506112701 53 216 0.0 0.0 0.12 0.02 0.02 99 1007.2
20260506112159 53 217 0.0 0.0 0.07 0.01 0.01 99 1007.2
20260506111657 53 217 0.0 0.0 0.00 0.00 0.00 98 1007.5
20260506111154 53 217 0.0 0.0 0.00 0.00 0.00 98 1007.4
20260506110651 53 217 0.0 0.0 0.00 0.00 0.00 98 1007.2
20260506110149 53 217 0.0 0.0 0.00 0.00 0.00 97 1007.1
20260506105645 53 217 0.0 0.0 0.05 0.03 0.03 97 1007.0
20260506105142 53 217 0.0 0.0 0.05 0.03 0.03 96 1007.0
20260506104641 53 217 0.0 0.0 0.00 0.02 0.02 96 1006.8
20260506104138 53 217 0.0 0.0 0.00 0.02 0.02 96 1006.8
20260506103635 53 218 0.0 0.0 0.00 0.02 0.02 95 1006.8
20260506103132 53 218 0.0 0.0 0.00 0.02 0.02 94 1006.8
20260506102630 53 218 0.0 0.0 0.00 0.02 0.02 93 1006.9
20260506102127 53 218 0.0 0.0 0.00 0.02 0.02 92 1006.8
20260506101623 54 218 0.0 0.0 0.00 0.02 0.02 91 1006.8
20260506101120 54 217 0.0 0.0 0.00 0.02 0.02 88 1006.9
20260506100619 55 216 0.0 0.0 0.00 0.02 0.02 87 1006.9
20260506100116 55 206 0.0 0.0 0.00 0.02 0.02 87 1006.9
20260506095615 55 232 0.0 0.0 0.00 0.02 0.02 84 1006.8
20260506095111 56 232 0.0 0.0 0.00 0.02 0.02 82 1006.8
20260506094609 56 233 0.0 0.0 0.00 0.02 0.02 79 1006.6
20260506094106 56 233 0.0 0.0 0.00 0.02 0.02 77 1006.6
20260506093605 57 212 0.0 0.0 0.00 0.02 0.02 77 1006.5
20260506093102 57 219 0.0 0.0 0.00 0.02 0.02 75 1006.5
20260506092600 57 232 0.0 0.0 0.00 0.02 0.02 75 1006.5
20260506092056 57 188 0.0 0.0 0.00 0.02 0.02 73 1006.5
20260506091554 58 213 0.0 0.0 0.00 0.02 0.02 73 1006.8
20260506091052 58 227 0.0 0.0 0.00 0.02 0.02 72 1006.6
20260506090549 58 218 0.0 0.0 0.00 0.02 0.02 74 1006.9
20260506090045 58 210 0.0 0.0 0.00 0.02 0.02 73 1006.8
20260506085542 58 286 0.0 0.0 0.00 0.02 0.02 70 1006.9
20260506085039 57 169 0.0 0.0 0.00 0.02 0.02 71 1007.0
20260506084536 57 235 0.0 1.0 0.00 0.02 0.02 71 1007.1
20260506084032 57 192 0.0 0.0 0.00 0.02 0.02 74 1007.0
20260506083529 57 216 0.0 0.0 0.00 0.02 0.02 75 1006.8
20260506083026 57 202 0.0 0.0 0.00 0.02 0.02 76 1006.8
20260506082523 57 218 0.0 0.0 0.00 0.02 0.02 77 1006.8
20260506082019 57 226 0.0 0.0 0.00 0.02 0.02 76 1006.9
20260506081517 57 190 0.0 0.0 0.00 0.02 0.02 77 1006.9
20260506081015 57 211 0.0 1.0 0.00 0.02 0.02 76 1006.9
20260506080512 56 206 0.0 1.0 0.00 0.02 0.02 75 1007.1
20260506073455 55 229 0.0 0.0 0.00 0.02 0.02 83 1007.3
20260506072952 54 200 0.0 0.0 0.00 0.02 0.02 84 1007.3
20260506072449 54 213 0.0 0.0 0.00 0.02 0.02 87 1007.4
20260506071947 53 193 0.0 0.0 0.00 0.02 0.02 89 1007.6
20260506071445 53 210 0.0 0.0 0.00 0.02 0.02 89 1007.3
20260506070942 53 215 0.0 0.0 0.00 0.02 0.02 91 1007.3
20260506070439 52 199 0.0 0.0 0.00 0.02 0.02 94 1007.4
20260506062416 50 202 0.0 0.0 0.00 0.02 0.02 99 1007.9
20260506061912 50 201 0.0 0.0 0.00 0.02 0.02 99 1007.9
20260506061409 50 201 0.0 0.0 0.00 0.02 0.02 99 1007.9
20260506060907 50 201 0.0 0.0 0.00 0.02 0.02 99 1008.1
20260506060404 50 201 0.0 0.0 0.00 0.02 0.02 99 1008.2
20260506051336 51 209 0.0 0.0 0.00 0.02 0.02 99 1008.6
20260506050834 51 209 0.0 0.0 0.00 0.02 0.02 99 1008.7
20260506050331 51 219 0.0 0.0 0.00 0.02 0.02 98 1008.8